Location: Newark
(12.4436°N, 0.6167°W)
Time: 03:31:39
(UTC+00:00)

Vanguard 1 - Pass Details

Date: 12 December 2019
Orbit: 651 x 3832 km, 34.2° (Epoch: 19 January)

Event Time Altitude Azimuth Distance (km) Brightness Sun altitude
Rises 05:57:40 0° 283° (WNW) 7,908 - -4.5°
Exits shadow 05:59:59 - 286° (WNW) 7,559 13.9 -3.9°
Reaches altitude 10° 06:04:08 10° 292° (WNW) 6,937 13.7 -3.0°
Maximum altitude 06:24:23 36° 352° (N) 4,465 13.2 1.5°
Drops below altitude 10° 06:38:48 10° 55° (NE) 5,030 14.2 4.7°
Sets 06:42:33 0° 65° (ENE) 5,625 14.6 5.6°
